Content
SEND FEEDBACK

Daily
Averages
Monthly
Summary
United States of America

ST. LOUIS, MISSOURI


Home > North America > United States > Missouri
Elevation: 535 feet     Latitude: 38 45N     Longitude: 090 22W

WEATHER
 
SELECT A DAY
Number of Records: 196,649;   Date Range: 1/1/95 - 9/18/14
 
SHARE

PRINT THIS DATA

[ ← Previous Day ]
WEATHER ALMANAC - JULY 20, 2014
[ Next Day → ]
[ °C ]   °F
Weather ElementAverageHighLow
Temperature72.4 °F84 °F (3:54 pm)57.9 °F (5:54 am)
Dewpoint59.7 °F63 °F (8:54 am)55.4 °F (5:27 am)
Humidity67.4 %94 % (5:50 am)41 % (3:54 pm)
Barometer30.00 in30.04 in (5:50 am)29.97 in (4:54 pm)
Wind Speed1.9 mph6.9 mph (4:54 pm)
Weather ElementAverage
Visibility8.9 mi
Wind DirectionENE (60 °)

Weather ElementTotal
Precipitation---
Cooling Degree Days6 (Base 65)
Growing Degree Days21 (Base 50)
Averaged from 25 records on July 20, 2014
WEATHER CONDITIONS BREAKOUT
WIND DIRECTION BREAKOUT
WEATHER BY HOUR - JULY 20, 2014
[ °C ]   °F
Local TimeTemperatureDewpointHumidityBarometerVisibilityWind DirectionWind SpeedGust SpeedPrecipitationEventsConditions
1:54 AM62.1 °F57.9 °F86 %30.00 in10.0 miCalmClear
2:54 AM61.0 °F59.0 °F93 %30.00 in8.0 miCalmClear
3:54 AM59.0 °F57.0 °F93 %30.00 in6.0 miCalmClear
4:54 AM60.1 °F57.9 °F93 %30.01 in5.0 miCalmClear
5:27 AM59.0 °F55.4 °F88 %30.03 in2.5 miCalmClear
5:50 AM59.0 °F57.2 °F94 %30.04 in8.0 miCalmClear
5:54 AM57.9 °F55.9 °F93 %30.02 in8.0 miCalmClear
6:54 AM60.1 °F57.9 °F93 %30.03 in6.0 miCalmPartly Cloudy
7:54 AM66.9 °F61.0 °F81 %30.04 in9.0 miCalmPartly Cloudy
8:54 AM73.0 °F63.0 °F71 %30.04 in10.0 miCalmPartly Cloudy
9:54 AM78.1 °F63.0 °F60 %30.04 in10.0 miSouth (180°)5.8 mphPartly Cloudy
10:54 AM79.0 °F61.0 °F54 %30.04 in10.0 miCalmScattered Clouds
11:54 AM80.1 °F60.1 °F50 %30.02 in10.0 miSSE (150°)3.5 mphScattered Clouds
12:54 PM82.9 °F57.9 °F42 %30.01 in10.0 miVariable4.6 mphMostly Cloudy
1:54 PM82.0 °F59.0 °F45 %30.00 in10.0 miCalmMostly Cloudy
2:54 PM82.9 °F57.9 °F42 %30.00 in10.0 miCalmMostly Cloudy
3:54 PM84.0 °F57.9 °F41 %29.98 in10.0 miCalmScattered Clouds
4:54 PM84.0 °F61.0 °F46 %29.97 in10.0 miSouth (180°)6.9 mphScattered Clouds
5:54 PM84.0 °F62.1 °F47 %29.97 in10.0 miSouth (190°)4.6 mphPartly Cloudy
6:54 PM82.0 °F63.0 °F52 %29.97 in10.0 miSouth (170°)3.5 mphClear
7:54 PM78.1 °F62.1 °F58 %29.97 in10.0 miSSE (160°)4.6 mphOvercast
8:54 PM75.9 °F62.1 °F62 %29.97 in10.0 miSSE (160°)5.8 mphClear
9:54 PM73.9 °F62.1 °F66 %29.98 in10.0 miSSE (160°)4.6 mphClear
10:54 PM73.0 °F61.0 °F66 %29.99 in10.0 miSSE (150°)3.5 mphClear
11:54 PM72.0 °F61.0 °F68 %29.99 in10.0 miCalmClear
Hourly data recorded from KSUS, located miles away from St. Louis, Missouri







STORIES FROM OUR PARTNERS